NOAA 16 DEB, 41706

Orbit data source: Space-Track

NOAA 16 DEB, 41706 is space debris in SSO originally from a launch on Thu, 21 Sep 2000 UTC launched from the Air Force Western Test Range (AFWTR). Debris objects in space refer to the collection of defunct objects orbiting the Earth. Examples of debris include non-operational satellites, rocket bodies, and fragments generated from explosions, collisions, or faulty payload assembly.

Loading next visibility...
Identifier
41706, 2000-055PL
Orbit
SSO
Country
Flag of USUS
Related business
Manufacturer
Unknown
Mission
Spacecraft
Bus & Motor
Unknown
Mass
Unknown
Launch date (UTC)
2000-09-21 (25 years ago)
Launch vehicle
Unknown
Launch site
Air Force Western Test Range (AFWTR)
Object type
Payload
Rocket body
Debris
Shape & HBR
Unknown shape, 0.1 m
Radar Cross Section
Small (<0.1 m²)

Expand to show TLE details & history
Last TLE update: 2 days ago

TLE from 2 days ago
0 NOAA 16 DEB
1 41706U 00055PL  26032.52311357  .00002304  00000-0  11826-2 0  9997
2 41706  98.6835  64.7438 0033942 227.6594 132.1704 14.16029673509952
Epoch: 2026-02-01T12:33Z
TLE epoch observation values (Epoch: 2026-02-01T12:33:17.012Z)
Latitude
-0.00005°
Longitude
104.69139°
Altitude
858.215 km
Speed
7.415 km/s
True Right ascension
04h 18m 58s
True Declination
0° 00' 00"
Sunlit
Object was in daylight at epoch
Visualization orbit readout
Latitude
Unknown
Longitude
Unknown
Altitude
Unknown
Speed
Unknown
Apparent Right ascension
Unknown
Apparent Declination
Unknown
Sunlit
N/A
Visualization observer readout
Local Sidereal Time
16:47:03
Azimuth
Unknown
Elevation
Unknown
Doppler factor
Unknown
Orbital elements
Apogee altitude
860.46 km
Perigee altitude
811.488 km
Semi-major axis
7,214.111 km
Eccentricity
0.00339
Inclination
98.6835°
RAAN
64.7438°
Arg. of periapsis
227.6594°
True anomaly
132.45785°
Mean anomaly
132.1704°
Eccentric anomaly
132.31421°
Mean motion
3.54217 °/min
Orbital period
101.63 mins
BSTAR
0.0011826
Loading maneuver chart data...
Computing Atmospheric mass density...
Loading historical data...
Loading historical data...
Loading historical data...
Loading historical data...
Loading historical data...
Loading historical data...
Loading historical data...

Documentation

Showing up to 5 results
|